COSMOS 1780 (GLONASS)

Satellite information

Favourite Embed

Satellite Type and Status

PAYLOADIN ORBIT

Key statistics

Satellite COSMOS 1780 (GLONASS) at a glance.

Uptime

14234

Days in orbit

Revolutions

≈ 2.1

Per day

Orbit

MEO

Medium Earth Orbit

Inclination

64.7

Latest

Satellite identification and parameters

Extended collection of information and parameters for COSMOS 1780 (GLONASS).

Object identification

Identified? True

Debris? False

Object name: COSMOS 1780 (GLONASS)

International designator: 1986-071C

Object number (NORAD): 16963

Object ID (CCSDS): 16963

Country: COMMONWEALTH OF INDEPENDENT STATES (CIS)

Current information (Y/N): Y

RCS size: MEDIUM

Orbital parameters

Period: 675.714 minutes

Inclination: 64.716 deg

SMA: 25507.562 km

Apoapsis: 19136.061 km

Periapsis: 19122.792 km

RAAN: 82.2132 deg

Eccentricy: 0.00026009

Argument of periapsis: 350.5388 deg

Mean anomaly: 191.7742 deg

Mean motion: 2.13107801 rev/day

Mean motion (dot): -0.00000005 rev/day2

B* drag term: 0.0 1/REarth

Two-line elements (TLE)

Creation date: Aug. 27, 2025, 2:14 a.m.

Reference frame: TEME

Reference center: EARTH

Epoch: Aug. 26, 2025, 7:48 p.m. UTC

TLE line 0: 0 COSMOS 1780 (GLONASS)

TLE line 1: 1 16963U 86071C 25238.82544749 -.00000005 00000-0 00000-0 0 9996

TLE line 2: 2 16963 64.7160 82.2132 0002601 350.5388 191.7742 2.13107801303055

Live tracking on map

Real-time ground track for satellite COSMOS 1780 (GLONASS).

In-orbit conjunctions

A list of the most updated potential collisions computed for object COSMOS 1780 (GLONASS).

Target Orbit TCA Probability of collision Miss distance Type
COSMOS 1885 (GLONASS) MEO 2024-09-19 06:51:44 TBA 2061.0 (m) PAYLOAD
COSMOS 1885 (GLONASS) MEO 2024-09-18 19:36:01 TBA 2473.0 (m) PAYLOAD
COSMOS 1885 (GLONASS) MEO 2024-09-01 05:16:41 TBA 3046.0 (m) PAYLOAD
COSMOS 1885 (GLONASS) MEO 2024-08-31 18:00:57 TBA 2757.0 (m) PAYLOAD
COSMOS 1885 (GLONASS) MEO 2024-08-31 06:45:14 TBA 1969.0 (m) PAYLOAD

Associated space launch

GLONASS navigation satellites

COSMOS 1780 (GLONASS) was lifted into orbit during the mission ‘Proton | Uragan 14 to 16’, on board a Proton space rocket.

The launch took place on Sept. 16, 1986, 11:38 a.m. from 200/40.

For more information about the launch, click the button.

Launch to space Proton | Uragan 14 to 16
Proton | Uragan 14 to 16

Agency: N/A

Status: Launch Successful

Launch date: Sept. 16, 1986, 11:38 a.m. UTC

Rocket: Proton

Launch pad: 200/40

Location: Baikonur Cosmodrome, Republic of Kazakhstan

...

Latest news about this satellite

There are no fresh news available about this satellite. Check back as we update our databases every day.


Newsletter sign-up

Weekly statistics, charts and insights to help you stay on top of the space industry.